Weather in Bolshoye Chausovo

Russia / Kurgan Oblast     55°30′32″N   65°22′55″E
temp.,
°C
wind,
m/s
gust,
m/s
humid.,
%
clouds,
%
prec.,
mm/h
press.,
hPa
HPBL,
m
17 june, thu
thu1723:00+20nw11695 0.0 101211
02:00+19wsw477263 0.1 1012104
05:00+18w346699 0.1 101167
08:00+25wsw484796 0.0 1009334
11:00+30sw593297 0.0 10071658
14:00+32sw71127100 0.0 10053391
17:00+31wsw7103071 0.1 10022493
20:00+18nnw91583100 2.2 1004572
18 june, fri
fri1823:00+17w119195 3.4 100417
02:00+16nw3798100 0.0 1003270
05:00+13n91494100 3.1 1005710
08:00+11n81485100 1.3 1008858
11:00+16n9124462 1.3 10091627
14:00+18n9123582 0.0 10112347
17:00+18n8113256 0.0 10122494
20:00+16n510425 0.0 1014511
19 june, sat
sat1923:00+10nw365449 0.0 101574
02:00+10nw4952100 0.0 1016182
05:00+10nw3115968 0.0 1017265
08:00+15nnw57485 0.0 1018586
11:00+19nnw683253 0.0 10172566
14:00+21nw8834100 0.0 10152984
17:00+14wnw61065100 0.0 1015904
20:00+15nw4871100 0.0 10141173
20 june, sun
sun2023:00+12w2390100 0.0 101341
02:00+13wsw3589100 0.0 1011139
05:00+13wsw3596100 0.1 1010160
08:00+15w3794100 0.2 1009384
11:00+18nw587696 0.5 1007990
14:00+21nw81268100 1.7 10061500
17:00+21nw9144410 2.3 10051293
20:00+18nnw917445 0.0 10082071
21 june, mon
mon2123:00+12nnw23635 0.0 101052
02:00+14nnw817411 0.0 10101339
05:00+13nnw81349100 0.0 10111307
08:00+12nnw7115834 0.0 1013958
11:00+17nnw8114937 0.0 10121683
14:00+19nnw81243100 0.0 10122437
17:00+19nnw81346100 0.1 10122647
20:00+14nne4106793 0.2 1014756